This is the latest recevied weather packets stored in our database for station/object K2YYD-2. If no packets are shown the sender has not sent any weather packets the latest 1 day(s).
| Time | Temp. | Humidity | Pressure | Rain* | Wind** | Luminosity | Snow |
|---|---|---|---|---|---|---|---|
| 1778014054 | 20° C | 63% | 1005.5 hPa | 0 mm | 1.79 m/s, 194° | 435 W/m² | - |
| 1778013934 | 20° C | 63% | 1005.4 hPa | 0 mm | 2.24 m/s, 160° | 396 W/m² | - |
| 1778013814 | 20° C | 63% | 1005.5 hPa | 0 mm | 1.79 m/s, 195° | 430 W/m² | - |
| 1778013695 | 20° C | 63% | 1005.5 hPa | 0 mm | 1.79 m/s, 183° | 488 W/m² | - |
| 1778013574 | 20° C | 62% | 1005.4 hPa | 0 mm | 1.79 m/s, 187° | 378 W/m² | - |
| 1778013454 | 20° C | 62% | 1005.4 hPa | 0 mm | 1.79 m/s, 188° | 327 W/m² | - |
| 1778013335 | 20° C | 63% | 1005.5 hPa | 0 mm | 2.24 m/s, 219° | 377 W/m² | - |
| 1778013214 | 20° C | 63% | 1005.4 hPa | 0 mm | 2.24 m/s, 174° | 385 W/m² | - |
| 1778013095 | 20° C | 63% | 1005.4 hPa | 0 mm | 2.24 m/s, 182° | 400 W/m² | - |
| 1778012975 | 20° C | 63% | 1005.4 hPa | 0 mm | 2.68 m/s, 180° | 357 W/m² | - |
| 1778012855 | 20° C | 63% | 1005.5 hPa | 0 mm | 2.68 m/s, 186° | 359 W/m² | - |
| 1778012744 | 20° C | 63% | 1005.5 hPa | 0 mm | 2.68 m/s, 194° | 265 W/m² | - |
| 1778012494 | 20° C | 63% | 1005.6 hPa | 0 mm | 2.68 m/s, 181° | 315 W/m² | - |
| 1778012374 | 20.56° C | 62% | 1005.6 hPa | 0 mm | 2.68 m/s, 277° | 416 W/m² | - |
| 1778012252 | 20.56° C | 62% | 1005.6 hPa | 0 mm | 2.68 m/s, 152° | 356 W/m² | - |
| 1778012132 | 20.56° C | 62% | 1005.6 hPa | 0 mm | 2.24 m/s, 149° | 396 W/m² | - |
| 1778012009 | 20.56° C | 62% | 1005.6 hPa | 0 mm | 2.24 m/s, 166° | 357 W/m² | - |
| 1778011889 | 20.56° C | 62% | 1005.6 hPa | 0 mm | 2.24 m/s, 193° | 325 W/m² | - |
| 1778011769 | 21.11° C | 60% | 1005.7 hPa | 0 mm | 1.79 m/s, 178° | 469 W/m² | - |
| 1778011646 | 21.11° C | 60% | 1005.6 hPa | 0 mm | 1.79 m/s, 171° | 351 W/m² | - |
| 1778011526 | 21.11° C | 61% | 1005.6 hPa | 0 mm | 1.79 m/s, 317° | 498 W/m² | - |
| 1778011407 | 21.11° C | 60% | 1005.6 hPa | 0 mm | 1.79 m/s, 194° | 491 W/m² | - |
| 1778011283 | 21.11° C | 60% | 1005.7 hPa | 0 mm | 1.79 m/s, 138° | 435 W/m² | - |
| 1778011163 | 21.11° C | 62% | 1005.7 hPa | 0 mm | 1.79 m/s, 80° | 525 W/m² | - |
| 1778011042 | 21.11° C | 61% | 1005.8 hPa | 0 mm | 1.79 m/s, 184° | 442 W/m² | - |
* Rain latest hour (hover to see other rain measurements)
** Current wind speed in m/s (hover to see current wind gust speed)